Starlink 2426

operational
NORAD ID: 47836 Int'l Des: 2021-018 Owner: SPXS Country: US Constellation: starlink
LEOCIRCULARSTARLINK_TYPE

关于 Starlink 2426

正在加载描述...

实时位置

正在加载3D地球...

即将过境

高度历史

Altitude vs Time

uPlot chart will show altitude changes over time

两行轨道根数

1 47836U 21018BB 25354.92860577 .00000087 00000-0 24713-4 0 9999
2 47836 53.0529 245.2762 0001514 83.6978 276.4183 15.06406144264727
Epoch: Dec 20, 2025 • Age: 6 hours

当前状态

高度 550.2 km
速度 7.59 km/s
星下点 -10.76°S, 76.97°E
发射日期 Mar 11, 2021
运行时间 4.7 years
类型 internet

技术详情

分类 Payload
质量 260.00 kg
干质量 248.00 kg
总质量 260.00 kg
长度 0.20 m
直径 2.80 m
跨度 9.00 m
形状 Box + pan
制造商 SPXS
平台类型 Starlink
阶段状态 In Orbit
所有者/国家 SPXS/US

大型星座

Loading constellations...